| time (UTC) | temp F | wind direction | speed MPH | gust MPH | rain 1hr in | rain 24hr in | rain mn in | humidity % | barometer mb |
| 20260507144149 | 61 | 49 | 0.0 | 0.0 | 0.00 | 0.00 | 0.00 | 52 | 1016.1 |
| 20260507141149 | 59 | 49 | 0.0 | 0.0 | 0.00 | 0.00 | 0.00 | 58 | 1016.3 |
| 20260507134148 | 55 | 43 | 0.0 | 0.0 | 0.00 | 0.00 | 0.00 | 69 | 1016.5 |
| 20260507131147 | 50 | 210 | 0.0 | 0.0 | 0.00 | 0.00 | 0.00 | 83 | 1016.3 |
| 20260507115114 | 41 | 210 | 0.0 | 10.0 | 0.00 | 0.00 | 0.00 | 92 | 1015.7 |
| 20260507112114 | 41 | 210 | 0.0 | 10.0 | 0.00 | 0.00 | 0.00 | 91 | 1015.6 |
| 20260507105113 | 41 | 210 | 0.0 | 10.0 | 0.00 | 0.00 | 0.00 | 91 | 1015.6 |
| 20260507102114 | 41 | 210 | 0.0 | 10.0 | 0.00 | 0.00 | 0.00 | 91 | 1015.3 |
| 20260507092113 | 41 | 210 | 0.0 | 10.0 | 0.00 | 0.00 | 0.00 | 89 | 1015.0 |
| 20260507085114 | 42 | 210 | 0.0 | 10.0 | 0.00 | 0.00 | 0.00 | 88 | 1014.9 |
| 20260507082113 | 42 | 210 | 0.0 | 10.0 | 0.00 | 0.00 | 0.00 | 87 | 1015.0 |
| 20260507075113 | 43 | 210 | 0.0 | 10.0 | 0.00 | 0.00 | 0.00 | 86 | 1015.1 |
| 20260507072114 | 44 | 210 | 0.0 | 10.0 | 0.00 | 0.00 | 0.00 | 85 | 1015.0 |
| 20260507065113 | 44 | 210 | 0.0 | 10.0 | 0.00 | 0.00 | 0.00 | 84 | 1015.0 |
| 20260507062113 | 45 | 210 | 0.0 | 10.0 | 0.00 | 0.00 | 0.00 | 82 | 1015.5 |
| 20260507055114 | 46 | 210 | 0.0 | 10.0 | 0.00 | 0.00 | 0.00 | 78 | 1015.5 |
| 20260507045114 | 51 | 210 | 0.0 | 10.0 | 0.00 | 0.00 | 0.00 | 71 | 1015.2 |
| 20260507042112 | 51 | 209 | 0.0 | 10.0 | 0.00 | 0.00 | 0.00 | 71 | 1014.3 |
| 20260507035114 | 51 | 229 | 0.0 | 10.0 | 0.00 | 0.00 | 0.00 | 70 | 1014.6 |
| 20260507025113 | 56 | 206 | 0.0 | 10.0 | 0.00 | 0.00 | 0.00 | 60 | 1013.9 |
| 20260507022113 | 57 | 199 | 0.0 | 10.0 | 0.00 | 0.00 | 0.00 | 60 | 1013.6 |
| 20260507015114 | 59 | 187 | 0.0 | 10.0 | 0.00 | 0.00 | 0.00 | 57 | 1013.2 |
| 20260507012114 | 61 | 208 | 0.0 | 10.0 | 0.00 | 0.00 | 0.00 | 54 | 1012.8 |
| 20260507005114 | 62 | 208 | 0.0 | 10.0 | 0.00 | 0.00 | 0.00 | 52 | 1012.7 |
| 20260507002113 | 63 | 178 | 0.0 | 10.0 | 0.00 | 0.00 | 0.00 | 50 | 1012.4 |
| 20260506232112 | 65 | 214 | 0.0 | 10.0 | 0.00 | 0.00 | 0.00 | 47 | 1011.9 |
| 20260506225113 | 65 | 196 | 4.0 | 10.0 | 0.00 | 0.00 | 0.00 | 48 | 1011.8 |
| 20260506222113 | 64 | 199 | 1.0 | 10.0 | 0.00 | 0.00 | 0.00 | 50 | 1011.5 |
| 20260506215114 | 64 | 188 | 2.0 | 10.0 | 0.00 | 0.00 | 0.00 | 52 | 1011.5 |
| 20260506212112 | 63 | 233 | 3.0 | 10.0 | 0.00 | 0.00 | 0.00 | 52 | 1011.7 |
| 20260506205113 | 63 | 129 | 3.0 | 10.0 | 0.00 | 0.00 | 0.00 | 53 | 1012.1 |
| 20260506202112 | 63 | 185 | 4.0 | 10.0 | 0.00 | 0.00 | 0.00 | 55 | 1012.2 |
| 20260506195113 | 63 | 214 | 0.0 | 10.0 | 0.00 | 0.00 | 0.00 | 54 | 1012.2 |
| 20260506192116 | 64 | 107 | 0.0 | 10.0 | 0.00 | 0.00 | 0.00 | 55 | 1012.3 |
| 20260506175113 | 61 | 218 | 3.0 | 10.0 | 0.00 | 0.00 | 0.00 | 53 | 1013.5 |
| 20260506172113 | 60 | 249 | 4.0 | 10.0 | 0.00 | 0.00 | 0.00 | 53 | 1013.5 |
| 20260506165443 | 58 | 326 | 3.0 | 10.0 | 0.00 | 0.00 | 0.00 | 55 | 1013.6 |
| 20260506165114 | 58 | 326 | 3.0 | 10.0 | 0.00 | 0.00 | 0.00 | 55 | 1013.6 |
| 20260506162112 | 56 | 216 | 3.0 | 10.0 | 0.00 | 0.00 | 0.00 | 60 | 1013.7 |
| 20260506155113 | 56 | 300 | 3.0 | 10.0 | 0.00 | 0.00 | 0.00 | 62 | 1013.5 |
| 20260506152113 | 53 | 215 | 6.0 | 10.0 | 0.00 | 0.00 | 0.00 | 71 | 1013.3 |